Flag for Brazil Weather past 2 weeks in Campinas, São Paulo, Brazil

Now
70 °F

Passing clouds.


Feels Like: 70 °F
Forecast: 64 / 85 °F
Wind: 3 mph from North

Location: Campinas Aeroporto

Current Time: Oct 26, 2014 at 1:12:46 AM

Latest Report: Oct 26, 2014 at 1:00 AM


Visibility: N/A

Pressure: 30.01 "Hg

Humidity: 78%

Dew point: 63 °F

Location of CampinasLocation

Historic Weather in Campinas — Graph

°F

Campinas temperature yesterday

Maximum temperature yesterday: 77 °F (at 2:00 PM)
Minimum temperature yesterday: 68 °F (at 5:00 AM)
Average temperature yesterday: 72 °F

Past Weeks' High & Low Weather Summary

 TemperatureHumidityPressure
High99 °F (Oct 17, 2:00 PM)88% (Oct 25, 9:00 PM)30.18 "Hg (Oct 25, 9:00 PM)
Low61 °F (Oct 23, 6:00 AM)13% (Oct 12, 4:00 PM)29.83 "Hg (Oct 19, 5:00 PM)
Average78 °F52%30.03 "Hg
* Reported Oct 10 11:00 PM — Midnight between Oct 25 and Oct 26, Campinas, Weather by CustomWeather, © 2014

Note: Actual official high and low records may vary slightly from our data, if they occured in-between our weather recording intervals... More about our weather records

Advertising

Campinas weather history for previous 24 hours

 ConditionsComfort  
Time TempWeatherWind HumidityBarometerVisibility
12:00 AM
Oct 26
70 °FPassing clouds.2 mph83%30.01 "HgN/A
11:00 PM
Oct 25
70 °FPassing clouds.No wind83%30.04 "HgN/A
10:00 PM72 °FPassing clouds.No wind83%30.04 "HgN/A
9:00 PM70 °FPassing clouds.No wind88%30.01 "HgN/A
8:00 PM72 °FPassing clouds.5 mph78%30.01 "HgN/A
7:00 PM73 °FScattered clouds.6 mph74%29.98 "HgN/A
6:00 PM75 °FScattered clouds.10 mph65%29.98 "HgN/A
5:00 PM75 °FPartly sunny.6 mph65%29.98 "HgN/A
4:00 PM75 °FPartly sunny.8 mph65%29.98 "HgN/A
3:00 PM75 °FScattered clouds.8 mph65%30.01 "HgN/A
2:00 PM77 °FScattered clouds.12 mph57%30.01 "HgN/A
1:00 PM75 °FScattered clouds.7 mph61%30.04 "HgN/A
12:00 PM75 °FScattered clouds.7 mph61%30.07 "HgN/A
11:00 AM73 °FPartly sunny.5 mph65%30.07 "HgN/A
10:00 AM72 °FPartly sunny.No wind73%30.07 "HgN/A
9:00 AM70 °FPartly sunny.3 mph78%30.04 "HgN/A
8:00 AM70 °FPartly sunny.8 mph78%30.04 "Hg4 mi
7:00 AM68 °FClear.5 mph83%30.01 "Hg5 mi
6:00 AM68 °FClear.7 mph83%29.98 "Hg4 mi
5:00 AM68 °FClear.7 mph83%29.95 "Hg4 mi
4:00 AM70 °FClear.No wind83%29.98 "Hg10 mi
3:00 AM70 °FClear.5 mph78%30.01 "Hg10 mi
2:00 AM70 °FClear.1 mph78%30.04 "Hg4 mi
1:00 AM70 °FHaze.3 mph73%30.04 "Hg3 mi
Weather by CustomWeather, © 2014

See weather overviewHow to use our weather pages